Time,TemperatureF,DewpointF,PressureIn,WindDirection,WindDirectionDegrees,WindSpeedMPH,WindSpeedGustMPH,Humidity,HourlyPrecipIn,Conditions,Clouds,dailyrainin,SoftwareType,DateUTC
2014-08-20 00:02:00,74.2,69.4,29.74,WSW,252,0.0,0.0,85,0.00,,,0.07,Wunderground v.1.15,2014-08-20 05:02:00,
2014-08-20 00:07:00,74.2,69.4,29.75,WSW,252,0.0,0.0,85,0.00,,,0.00,Wunderground v.1.15,2014-08-20 05:07:00,
2014-08-20 00:12:00,74.0,69.2,29.75,WSW,252,0.0,0.0,85,0.00,,,0.00,Wunderground v.1.15,2014-08-20 05:12:00,
2014-08-20 00:17:00,74.0,69.2,29.75,WSW,252,0.0,0.0,85,0.00,,,0.00,Wunderground v.1.15,2014-08-20 05:17:00,
2014-08-20 00:23:00,73.9,69.4,29.74,WSW,252,0.0,0.0,86,0.00,,,0.00,Wunderground v.1.15,2014-08-20 05:23:00,
2014-08-20 00:28:00,73.9,69.4,29.74,WSW,252,0.0,0.0,86,0.00,,,0.00,Wunderground v.1.15,2014-08-20 05:28:00,
2014-08-20 00:33:00,73.9,69.4,29.74,WSW,252,0.0,0.0,86,0.00,,,0.00,Wunderground v.1.15,2014-08-20 05:33:00,
2014-08-20 00:38:00,73.7,69.2,29.75,WSW,252,0.0,0.0,86,0.00,,,0.00,Wunderground v.1.15,2014-08-20 05:38:00,
2014-08-20 00:43:00,73.7,69.6,29.75,WSW,252,0.0,0.0,87,0.00,,,0.00,Wunderground v.1.15,2014-08-20 05:43:00,
2014-08-20 00:49:00,73.5,69.4,29.75,WSW,252,0.0,0.0,87,0.00,,,0.00,Wunderground v.1.15,2014-08-20 05:49:00,
2014-08-20 00:54:00,73.3,69.2,29.75,WSW,252,0.0,0.0,87,0.00,,,0.00,Wunderground v.1.15,2014-08-20 05:54:00,
2014-08-20 00:59:00,73.3,69.2,29.75,WSW,252,0.0,0.0,87,0.00,,,0.00,Wunderground v.1.15,2014-08-20 05:59:00,
2014-08-20 01:04:00,73.2,69.1,29.75,WSW,252,0.0,0.0,87,0.00,,,0.00,Wunderground v.1.15,2014-08-20 06:04:00,
2014-08-20 01:10:00,73.0,68.9,29.75,WSW,252,0.0,0.0,87,0.00,,,0.00,Wunderground v.1.15,2014-08-20 06:10:00,
2014-08-20 01:15:00,73.0,68.9,29.75,WSW,252,0.0,0.0,87,0.00,,,0.00,Wunderground v.1.15,2014-08-20 06:15:00,
2014-08-20 01:20:00,73.0,69.2,29.75,WSW,252,0.0,0.0,88,0.00,,,0.00,Wunderground v.1.15,2014-08-20 06:20:00,
2014-08-20 01:25:00,72.8,69.0,29.75,WSW,252,0.0,0.0,88,0.00,,,0.00,Wunderground v.1.15,2014-08-20 06:25:00,
2014-08-20 01:30:00,72.8,69.0,29.75,WSW,252,0.0,0.0,88,0.00,,,0.00,Wunderground v.1.15,2014-08-20 06:30:00,
2014-08-20 01:36:00,72.7,68.9,29.74,WSW,252,0.0,0.0,88,0.00,,,0.00,Wunderground v.1.15,2014-08-20 06:36:00,
2014-08-20 01:41:00,72.7,68.9,29.74,WSW,252,0.0,0.0,88,0.00,,,0.00,Wunderground v.1.15,2014-08-20 06:41:00,
2014-08-20 01:46:00,72.5,68.7,29.74,WSW,252,0.0,0.0,88,0.00,,,0.00,Wunderground v.1.15,2014-08-20 06:46:00,
2014-08-20 01:52:00,72.5,68.7,29.74,WSW,252,0.0,0.0,88,0.00,,,0.00,Wunderground v.1.15,2014-08-20 06:52:00,
2014-08-20 01:57:00,72.3,68.5,29.74,WSW,252,0.0,0.0,88,0.00,,,0.00,Wunderground v.1.15,2014-08-20 06:57:00,
2014-08-20 02:02:00,72.3,68.9,29.74,WSW,252,0.0,0.0,89,0.00,,,0.00,Wunderground v.1.15,2014-08-20 07:02:00,
2014-08-20 02:07:00,72.3,68.9,29.74,WSW,252,0.0,0.0,89,0.00,,,0.00,Wunderground v.1.15,2014-08-20 07:07:00,
2014-08-20 02:12:00,72.1,68.7,29.74,WSW,252,0.0,0.0,89,0.00,,,0.00,Wunderground v.1.15,2014-08-20 07:12:00,
2014-08-20 02:17:00,72.1,68.7,29.74,WSW,252,0.0,0.0,89,0.00,,,0.00,Wunderground v.1.15,2014-08-20 07:17:00,
2014-08-20 02:22:00,72.0,68.6,29.74,WSW,252,0.0,0.0,89,0.00,,,0.00,Wunderground v.1.15,2014-08-20 07:22:00,
2014-08-20 02:27:00,72.0,68.6,29.74,WSW,252,0.0,0.0,89,0.00,,,0.00,Wunderground v.1.15,2014-08-20 07:27:00,
2014-08-20 02:32:00,71.8,68.7,29.74,WSW,252,0.0,0.0,90,0.00,,,0.00,Wunderground v.1.15,2014-08-20 07:32:00,
2014-08-20 02:37:00,71.8,68.7,29.74,WSW,252,0.0,0.0,90,0.00,,,0.00,Wunderground v.1.15,2014-08-20 07:37:00,
2014-08-20 02:42:00,71.8,68.7,29.74,WSW,252,0.0,0.0,90,0.00,,,0.00,Wunderground v.1.15,2014-08-20 07:42:00,
2014-08-20 02:47:00,71.8,68.7,29.74,WSW,252,0.0,0.0,90,0.00,,,0.00,Wunderground v.1.15,2014-08-20 07:47:00,
2014-08-20 02:52:00,71.6,68.5,29.74,WSW,252,0.0,0.0,90,0.00,,,0.00,Wunderground v.1.15,2014-08-20 07:52:00,
2014-08-20 02:57:00,71.6,68.5,29.74,WSW,252,0.0,0.0,90,0.00,,,0.00,Wunderground v.1.15,2014-08-20 07:57:00,
2014-08-20 03:02:00,71.6,68.5,29.74,WSW,252,0.0,0.0,90,0.00,,,0.00,Wunderground v.1.15,2014-08-20 08:02:00,
2014-08-20 03:07:00,71.5,68.7,29.75,WSW,252,0.0,0.0,91,0.00,,,0.00,Wunderground v.1.15,2014-08-20 08:07:00,
2014-08-20 03:12:00,71.5,68.7,29.75,WSW,252,0.0,0.0,91,0.00,,,0.00,Wunderground v.1.15,2014-08-20 08:12:00,
2014-08-20 03:17:00,71.5,68.7,29.75,WSW,252,0.0,0.0,91,0.00,,,0.00,Wunderground v.1.15,2014-08-20 08:17:00,
2014-08-20 03:22:00,71.3,68.5,29.74,WSW,252,0.0,0.0,91,0.00,,,0.00,Wunderground v.1.15,2014-08-20 08:22:00,
2014-08-20 03:27:00,71.3,68.5,29.74,WSW,252,0.0,0.0,91,0.00,,,0.00,Wunderground v.1.15,2014-08-20 08:27:00,
2014-08-20 03:32:00,71.3,68.5,29.74,WSW,252,0.0,0.0,91,0.00,,,0.00,Wunderground v.1.15,2014-08-20 08:32:00,
2014-08-20 03:37:00,71.1,68.3,29.75,WSW,252,0.0,0.0,91,0.00,,,0.00,Wunderground v.1.15,2014-08-20 08:37:00,
2014-08-20 03:42:00,71.1,68.3,29.75,WSW,252,0.0,0.0,91,0.00,,,0.00,Wunderground v.1.15,2014-08-20 08:42:00,
2014-08-20 03:47:00,70.9,68.1,29.75,WSW,252,0.0,0.0,91,0.00,,,0.00,Wunderground v.1.15,2014-08-20 08:47:00,
2014-08-20 03:52:00,70.9,68.1,29.75,WSW,252,0.0,0.0,91,0.00,,,0.00,Wunderground v.1.15,2014-08-20 08:52:00,
2014-08-20 03:57:00,70.9,68.1,29.75,WSW,252,0.0,0.0,91,0.00,,,0.00,Wunderground v.1.15,2014-08-20 08:57:00,
2014-08-20 04:02:00,70.9,68.1,29.75,WSW,252,0.0,0.0,91,0.00,,,0.00,Wunderground v.1.15,2014-08-20 09:02:00,
2014-08-20 04:07:00,70.9,68.1,29.75,WSW,252,0.0,0.0,91,0.00,,,0.00,Wunderground v.1.15,2014-08-20 09:07:00,
2014-08-20 04:12:00,70.8,68.0,29.75,WSW,252,0.0,0.0,91,0.00,,,0.00,Wunderground v.1.15,2014-08-20 09:12:00,
2014-08-20 04:17:00,70.8,68.0,29.75,WSW,252,0.0,0.0,91,0.00,,,0.00,Wunderground v.1.15,2014-08-20 09:17:00,
2014-08-20 04:22:00,70.8,68.4,29.75,WSW,252,0.0,0.0,92,0.00,,,0.00,Wunderground v.1.15,2014-08-20 09:22:00,
2014-08-20 04:27:00,70.8,68.4,29.75,WSW,252,0.0,0.0,92,0.00,,,0.00,Wunderground v.1.15,2014-08-20 09:27:00,
2014-08-20 04:32:00,70.8,68.4,29.75,WSW,252,0.0,0.0,92,0.00,,,0.00,Wunderground v.1.15,2014-08-20 09:32:00,
2014-08-20 04:37:00,70.8,68.4,29.76,WSW,252,0.0,0.0,92,0.00,,,0.00,Wunderground v.1.15,2014-08-20 09:37:00,
2014-08-20 04:42:00,70.8,68.4,29.76,WSW,252,0.0,0.0,92,0.00,,,0.00,Wunderground v.1.15,2014-08-20 09:42:00,
2014-08-20 04:47:00,70.8,68.4,29.76,WSW,252,0.0,0.0,92,0.00,,,0.00,Wunderground v.1.15,2014-08-20 09:47:00,
2014-08-20 04:52:00,70.8,68.4,29.76,WSW,252,0.0,0.0,92,0.00,,,0.00,Wunderground v.1.15,2014-08-20 09:52:00,
2014-08-20 04:58:00,70.8,68.4,29.76,WSW,252,0.0,0.0,92,0.00,,,0.00,Wunderground v.1.15,2014-08-20 09:58:00,
2014-08-20 05:03:00,70.8,68.4,29.76,WSW,252,0.0,1.0,92,0.00,,,0.00,Wunderground v.1.15,2014-08-20 10:03:00,
2014-08-20 05:08:00,70.9,68.5,29.76,WSW,252,0.0,1.0,92,0.00,,,0.00,Wunderground v.1.15,2014-08-20 10:08:00,
2014-08-20 05:13:00,70.9,68.8,29.76,WSW,252,0.0,2.0,93,0.00,,,0.00,Wunderground v.1.15,2014-08-20 10:13:00,
2014-08-20 05:18:00,71.1,69.0,29.76,WSW,252,1.0,2.0,93,0.00,,,0.00,Wunderground v.1.15,2014-08-20 10:18:00,
2014-08-20 05:23:00,71.3,69.2,29.77,WSW,252,0.0,3.0,93,0.00,,,0.00,Wunderground v.1.15,2014-08-20 10:23:00,
2014-08-20 05:28:00,71.5,69.4,29.77,WSW,252,0.0,3.0,93,0.00,,,0.00,Wunderground v.1.15,2014-08-20 10:28:00,
2014-08-20 05:33:00,71.6,69.5,29.77,WSW,252,0.0,1.0,93,0.00,,,0.00,Wunderground v.1.15,2014-08-20 10:33:00,
2014-08-20 05:38:00,71.8,69.7,29.77,WSW,252,0.0,1.0,93,0.00,,,0.00,Wunderground v.1.15,2014-08-20 10:38:00,
2014-08-20 05:43:00,71.8,69.7,29.77,WSW,252,0.0,0.0,93,0.00,,,0.00,Wunderground v.1.15,2014-08-20 10:43:00,
2014-08-20 05:48:00,72.0,69.9,29.77,WSW,252,0.0,0.0,93,0.00,,,0.00,Wunderground v.1.15,2014-08-20 10:48:00,
2014-08-20 05:53:00,72.0,69.9,29.77,WSW,252,0.0,0.0,93,0.00,,,0.00,Wunderground v.1.15,2014-08-20 10:53:00,
2014-08-20 05:58:00,72.0,69.9,29.77,WSW,252,0.0,0.0,93,0.00,,,0.00,Wunderground v.1.15,2014-08-20 10:58:00,
2014-08-20 06:03:00,72.0,69.9,29.77,WSW,252,0.0,0.0,93,0.00,,,0.00,Wunderground v.1.15,2014-08-20 11:03:00,
2014-08-20 06:08:00,72.0,69.9,29.77,WSW,252,0.0,0.0,93,0.00,,,0.00,Wunderground v.1.15,2014-08-20 11:08:00,
2014-08-20 06:13:00,72.0,69.9,29.77,WSW,252,0.0,0.0,93,0.00,,,0.00,Wunderground v.1.15,2014-08-20 11:13:00,
2014-08-20 06:18:00,72.0,69.9,29.77,WSW,252,0.0,0.0,93,0.00,,,0.00,Wunderground v.1.15,2014-08-20 11:18:00,
2014-08-20 06:23:00,71.8,69.7,29.77,WSW,252,0.0,0.0,93,0.00,,,0.00,Wunderground v.1.15,2014-08-20 11:23:00,
2014-08-20 06:28:00,71.8,69.7,29.77,WSW,252,0.0,0.0,93,0.00,,,0.00,Wunderground v.1.15,2014-08-20 11:28:00,
2014-08-20 06:33:00,71.8,69.3,29.78,WSW,252,0.0,0.0,92,0.00,,,0.00,Wunderground v.1.15,2014-08-20 11:33:00,
2014-08-20 06:38:00,71.8,69.3,29.78,WSW,252,0.0,0.0,92,0.00,,,0.00,Wunderground v.1.15,2014-08-20 11:38:00,
2014-08-20 06:43:00,71.8,69.7,29.78,WSW,252,0.0,0.0,93,0.00,,,0.00,Wunderground v.1.15,2014-08-20 11:43:00,
2014-08-20 06:48:00,71.8,69.3,29.78,WSW,252,0.0,0.0,92,0.00,,,0.00,Wunderground v.1.15,2014-08-20 11:48:00,
2014-08-20 06:53:00,71.8,69.3,29.78,WSW,252,0.0,0.0,92,0.00,,,0.00,Wunderground v.1.15,2014-08-20 11:53:00,
2014-08-20 06:59:00,71.6,69.2,29.78,WSW,252,0.0,0.0,92,0.00,,,0.00,Wunderground v.1.15,2014-08-20 11:59:00,
2014-08-20 07:04:00,71.6,69.2,29.79,WSW,252,0.0,0.0,92,0.00,,,0.00,Wunderground v.1.15,2014-08-20 12:04:00,
2014-08-20 07:09:00,71.6,69.2,29.79,WSW,252,0.0,0.0,92,0.00,,,0.00,Wunderground v.1.15,2014-08-20 12:09:00,
2014-08-20 07:14:00,71.6,69.5,29.79,WSW,252,0.0,0.0,93,0.00,,,0.00,Wunderground v.1.15,2014-08-20 12:14:00,
2014-08-20 07:19:00,71.6,69.5,29.79,WSW,252,0.0,0.0,93,0.00,,,0.00,Wunderground v.1.15,2014-08-20 12:19:00,
2014-08-20 07:24:00,71.6,69.5,29.79,WSW,252,0.0,0.0,93,0.00,,,0.00,Wunderground v.1.15,2014-08-20 12:24:00,
2014-08-20 07:29:00,71.6,69.5,29.79,WSW,252,0.0,0.0,93,0.00,,,0.00,Wunderground v.1.15,2014-08-20 12:29:00,
2014-08-20 07:34:00,71.8,69.7,29.79,WSW,252,0.0,0.0,93,0.00,,,0.00,Wunderground v.1.15,2014-08-20 12:34:00,